DW4145 Weather Reports


time (UTC)temp
C
wind
direction
speed
KPH
gust
KPH
rain 1hr
cm
rain 24hr
cm
rain mn
cm
humidity
%
barometer
mb
20260504081518 11 209 0.0 3.2 0.00 0.00 0.00 67 1014.5
20260504050024 13 193 6.4 11.3 0.00 0.00 0.00 55 1015.5
20260504044529 13 194 3.2 11.3 0.00 0.00 0.00 56 1015.7
20260504043018 13 194 1.6 6.4 0.00 0.00 0.00 54 1015.8
20260504041521 14 211 1.6 8.0 0.00 0.00 0.00 53 1016.0
20260504040024 14 161 3.2 8.0 0.00 0.00 0.00 52 1016.1
20260504034523 14 221 1.6 11.3 0.00 0.00 0.00 53 1016.1
20260504033028 13 205 1.6 3.2 0.00 0.00 0.00 53 1016.1
20260504031520 13 147 0.0 4.8 0.00 0.00 0.00 54 1016.1
20260504030022 13 219 0.0 3.2 0.00 0.00 0.00 54 1016.1
20260504024528 13 205 0.0 0.0 0.00 0.00 0.00 54 1016.1
20260504023023 13 205 0.0 0.0 0.00 0.00 0.00 55 1016.1
20260504021535 13 205 0.0 3.2 0.00 0.00 0.00 52 1016.0
20260504020025 14 227 0.0 3.2 0.00 0.00 0.00 51 1015.7
20260504014525 14 171 0.0 1.6 0.00 0.00 0.00 49 1015.6
20260504013034 15 176 0.0 3.2 0.00 0.00 0.00 47 1015.7
20260504011530 15 186 0.0 3.2 0.00 0.00 0.00 46 1015.8
20260504010026 16 210 0.0 1.6 0.00 0.00 0.00 44 1015.9
20260504004536 16 225 0.0 3.2 0.00 0.00 0.00 43 1015.9
20260504003025 17 196 0.0 8.0 0.00 0.00 0.00 41 1015.7
20260504001533 17 218 1.6 8.0 0.00 0.00 0.00 40 1015.7
20260504000024 18 177 3.2 11.3 0.00 0.00 0.00 39 1016.0
20260503234528 18 167 1.6 12.9 0.00 0.00 0.00 40 1016.3
20260503233022 18 183 3.2 9.7 0.00 0.00 0.00 39 1016.2
20260503231526 18 180 3.2 8.0 0.00 0.00 0.00 39 1016.2
20260503230004 19 192 4.8 12.9 0.00 0.00 0.00 38 1016.1
20260503224505 20 219 4.8 11.3 0.00 0.00 0.00 37 1016.4
20260503223008 20 200 3.2 11.3 0.00 0.00 0.00 37 1016.6
20260503221503 20 205 3.2 8.0 0.00 0.00 0.00 36 1016.9
20260503220020 20 224 3.2 14.5 0.00 0.00 0.00 36 1016.9
20260503214509 20 352 1.6 11.3 0.00 0.00 0.00 37 1017.1
20260503213025 20 243 3.2 16.1 0.00 0.00 0.00 36 1017.3
20260503211514 20 75 0.0 9.7 0.00 0.00 0.00 40 1017.6
20260503210014 20 207 6.4 12.9 0.00 0.00 0.00 37 1017.7
20260503204505 20 187 4.8 12.9 0.00 0.00 0.00 38 1018.0
20260503203017 19 194 6.4 11.3 0.00 0.00 0.00 36 1018.3
20260503201510 19 226 6.4 11.3 0.00 0.00 0.00 36 1018.7
20260503200024 19 178 3.2 12.9 0.00 0.00 0.00 38 1018.8
20260503194504 18 192 4.8 9.7 0.00 0.00 0.00 38 1019.1
20260503193008 18 235 6.4 17.7 0.00 0.00 0.00 42 1019.3
20260503191507 18 9 3.2 14.5 0.00 0.00 0.00 37 1019.5
20260503190014 18 204 3.2 12.9 0.00 0.00 0.00 37 1019.7
20260503184509 17 202 6.4 11.3 0.00 0.00 0.00 38 1019.9
20260503183008 17 5 1.6 12.9 0.00 0.00 0.00 36 1020.1
20260503181531 17 124 1.6 4.8 0.00 0.00 0.00 39 1020.3
20260503180021 16 260 4.8 14.5 0.00 0.00 0.00 39 1020.3
20260503174508 16 238 4.8 9.7 0.00 0.00 0.00 42 1020.5
20260503173004 16 197 8.0 11.3 0.00 0.00 0.00 40 1020.8
20260503171521 16 187 3.2 9.7 0.00 0.00 0.00 41 1021.0